TimeNZDT,TemperatureF,Dew PointF,Humidity,Sea Level PressureIn,VisibilityMPH,Wind Direction,Wind SpeedMPH,Gust SpeedMPH,PrecipitationIn,Events,Conditions,WindDirDegrees,DateUTC
12:50 AM,-20.2,-9999,N/A,28.88,6.2,ENE,6.9,-,N/A,,Mostly Cloudy,70,2013-01-24 11:50:00
1:00 AM,-20,,,,7,ENE,6.9,,,,Partly Cloudy,70,2013-01-24 12:00:00
3:50 AM,-20.2,-9999,N/A,28.90,6.2,East,6.9,-,N/A,,Mostly Cloudy,80,2013-01-24 14:50:00
5:50 AM,-20.2,-9999,N/A,28.90,6.2,ENE,9.2,-,N/A,,Partly Cloudy,70,2013-01-24 16:50:00
6:50 AM,-20.2,-9999,N/A,28.91,6.2,East,8.1,-,N/A,,Partly Cloudy,80,2013-01-24 17:50:00
7:00 AM,-20,,,,7,East,8.1,,,,Scattered Clouds,80,2013-01-24 18:00:00
7:50 AM,-20.2,-9999,N/A,28.92,6.2,East,8.1,-,N/A,,Partly Cloudy,80,2013-01-24 18:50:00
8:50 AM,-20.2,-9999,N/A,28.93,6.2,ESE,8.1,-,N/A,,Partly Cloudy,110,2013-01-24 19:50:00
9:50 AM,-20.2,-9999,N/A,28.94,6.2,East,11.5,-,N/A,,Partly Cloudy,100,2013-01-24 20:50:00
10:50 AM,-22.0,-9999,N/A,28.94,6.2,East,10.4,-,N/A,,Partly Cloudy,80,2013-01-24 21:50:00
11:50 AM,-20.2,-9999,N/A,28.95,6.2,East,9.2,-,N/A,,Partly Cloudy,80,2013-01-24 22:50:00
12:50 PM,-20.2,-9999,N/A,28.95,6.2,ENE,5.8,-,N/A,,Ice Crystals,70,2013-01-24 23:50:00
1:00 PM,-20,,,,7,ENE,5.8,,,Snow,Snow,70,2013-01-25 00:00:00
1:50 PM,-20.2,-9999,N/A,28.96,6.2,East,8.1,-,N/A,,Ice Crystals,90,2013-01-25 00:50:00
2:50 PM,-20.2,-9999,N/A,28.96,6.2,East,8.1,-,N/A,,Partly Cloudy,90,2013-01-25 01:50:00
3:50 PM,-20.2,-9999,N/A,28.97,6.2,East,8.1,-,N/A,,Partly Cloudy,90,2013-01-25 02:50:00
4:50 PM,-20.2,-9999,N/A,28.96,6.2,East,10.4,-,N/A,,Partly Cloudy,80,2013-01-25 03:50:00
5:50 PM,-20.2,-9999,N/A,28.97,6.2,East,11.5,-,N/A,,Partly Cloudy,90,2013-01-25 04:50:00
6:50 PM,-20.2,-9999,N/A,28.97,6.2,East,11.5,-,N/A,,Partly Cloudy,90,2013-01-25 05:50:00
7:00 PM,-21,,,,7,East,11.5,,,,Partly Cloudy,90,2013-01-25 06:00:00